Location: Averill Park
(42.6340°N, 73.5537°W)
Time: 21:42:15
(UTC+00:00)

BlueWalker 3 - Visible Passes

Search period start: 04 October 2024 00:00
Search period end: 14 October 2024 00:00
Orbit: 473 x 486 km, 53.2° (Epoch: 04 October)

Date Brightness Start Highest point End Pass type
(mag) Time Alt. Az. Time Alt. Az. Time Alt. Az.
04 Oct 4.5 08:35:27 12° SE 08:36:12 13° SE 08:37:56 10° E visible
04 Oct 1.8 10:10:01 10° SW 10:13:42 84° NW 10:17:24 10° NE visible
05 Oct 5.0 08:09:02 11° ESE 08:09:02 11° ESE 08:09:19 10° ESE visible
05 Oct 1.8 09:43:16 22° SW 09:45:35 86° SE 09:49:17 10° NE visible
06 Oct 1.8 09:16:40 53° SSW 09:17:26 77° SE 09:21:08 10° NE visible
07 Oct 2.5 08:49:56 52° E 08:49:56 52° E 08:52:55 10° ENE visible
07 Oct 3.2 10:24:20 10° W 10:27:30 26° NNW 10:30:39 10° NE visible
08 Oct 4.2 08:23:05 23° ENE 08:23:05 23° ENE 08:24:39 10° ENE visible
08 Oct 3.1 09:57:17 18° WNW 09:59:12 27° NNW 10:02:26 10° NE visible
09 Oct 5.2 07:56:06 12° ENE 07:56:06 12° ENE 07:56:21 10° ENE visible
09 Oct 2.9 09:30:18 28° NW 09:30:53 29° NNW 09:34:10 10° NE visible
10 Oct 3.2 09:03:14 29° N 09:03:14 29° N 09:05:53 10° NE visible
11 Oct 4.2 08:36:05 20° NNE 08:36:05 20° NNE 08:37:33 10° NE visible
11 Oct 4.0 10:10:32 10° NW 10:12:57 16° N 10:15:22 10° NE visible
12 Oct 5.0 08:08:53 12° NE 08:08:53 12° NE 08:09:10 10° NE visible
12 Oct 3.9 09:43:04 14° NW 09:44:29 17° N 09:46:56 10° NE visible
13 Oct 3.9 09:15:47 17° NNW 09:15:58 17° N 09:18:28 10° NE visible
